GW0523 Weather Reports


time (UTC)temp
C
wind
direction
speed
KPH
gust
KPH
rain 1hr
cm
rain 24hr
cm
rain mn
cm
humidity
%
barometer
mb
20260507192550 11 90 3.2 3.2 0.00 0.00 0.00 70 1011.2
20260507191647 11 120 3.2 4.8 0.00 0.00 0.00 67 1011.3
20260507190643 12 0.0 0.0 0.00 0.00 0.00 63 1011.2
20260507185639 11 0.0 0.0 0.00 0.00 0.00 68 1011.1
20260507184635 11 0.0 0.0 0.00 0.00 0.00 68 1011.0
20260507183631 11 0.0 0.0 0.00 0.00 0.00 68 1011.0
20260507182626 11 279 1.6 3.2 0.00 0.00 0.00 68 1011.0
20260507181641 11 295 4.8 6.4 0.00 0.00 0.00 68 1011.1
20260507180617 11 275 4.8 6.4 0.00 0.00 0.00 69 1010.9
20260507175613 12 315 3.2 6.4 0.00 0.00 0.00 70 1011.0
20260507174609 11 280 4.8 8.0 0.00 0.00 0.00 70 1011.0
20260507173604 12 282 4.8 6.4 0.00 0.00 0.00 70 1011.0
20260507172559 12 270 3.2 4.8 0.00 0.00 0.00 70 1011.0
20260507171554 13 270 4.8 6.4 0.00 0.00 0.00 63 1010.9
20260507170549 12 0.0 3.2 0.00 0.00 0.00 64 1011.0
20260507165644 -17 0.0 0.0 0.00 0.00 0.00 1010.9
20260507164700 -17 0.0 0.0 0.00 0.00 0.00 1010.9
20260507163635 13 293 6.4 6.4 0.00 0.00 0.00 59 1010.7
20260507162631 13 213 9.7 12.9 0.00 0.00 0.00 58 1010.8
20260507161628 13 180 11.3 12.9 0.00 0.00 0.00 57 1010.8
20260507160623 12 180 12.9 14.5 0.00 0.00 0.00 57 1010.7
20260507155618 12 180 6.4 14.5 0.00 0.00 0.00 58 1010.8
20260507154613 12 180 12.9 17.7 0.00 0.00 0.00 57 1010.8
20260507153609 12 180 12.9 16.1 0.00 0.00 0.00 59 1010.8
20260507152604 12 171 11.3 16.1 0.00 0.00 0.00 59 1010.8
20260507151601 12 219 11.3 14.5 0.00 0.00 0.00 61 1010.9
20260507150557 -17 0.0 0.0 0.00 0.00 0.00 1010.9
20260507145553 12 180 6.4 6.4 0.00 0.00 0.00 63 1010.9
20260507144549 12 135 6.4 11.3 0.00 0.00 0.00 63 1010.9
20260507143545 -17 0.0 0.0 0.00 0.00 0.00 1011.0
20260507142640 -17 0.0 0.0 0.00 0.00 0.00 1011.2
20260507141635 -17 0.0 0.0 0.00 0.00 0.00 1011.3
20260507140631 -17 0.0 0.0 0.00 0.00 0.00 1011.3
20260507135626 -17 0.0 0.0 0.00 0.00 0.00 1011.4
20260507134643 -17 0.0 0.0 0.00 0.00 0.00 1011.3
20260507133618 -17 0.0 0.0 0.00 0.00 0.00 1011.3
20260507132613 13 135 12.9 17.7 0.00 0.00 0.00 60 1011.4
20260507131608 12 180 12.9 16.1 0.00 0.00 0.00 62 1011.5
20260507130603 -17 0.0 0.0 0.00 0.00 0.00 1011.5
20260507125617 -17 0.0 0.0 0.00 0.00 0.00 1011.5
20260507124553 -17 0.0 0.0 0.00 0.00 0.00 1011.4
20260507123629 -17 0.0 0.0 0.00 0.00 0.00 1011.4
20260507122545 13 135 8.0 11.3 0.00 0.00 0.00 60 1011.4
20260507121541 -17 0.0 0.0 0.00 0.00 0.00 1011.4
20260507120536 13 180 16.1 20.9 0.00 0.00 0.00 60 1011.5
20260507115631 13 135 11.3 12.9 0.00 0.00 0.00 59 1011.4
20260507114626 13 151 11.3 12.9 0.00 0.00 0.00 59 1011.4
20260507113622 13 158 9.7 12.9 0.00 0.00 0.00 60 1011.6
20260507112618 13 118 8.0 12.9 0.00 0.00 0.00 60 1011.6
20260507111614 13 159 8.0 12.9 0.00 0.00 0.00 61 1011.7
20260507110630 12 130 8.0 12.9 0.00 0.00 0.00 64 1011.9
20260507105606 11 146 8.0 11.3 0.00 0.00 0.00 67 1011.9
20260507104602 11 169 9.7 12.9 0.00 0.00 0.00 68 1012.1
20260507103558 11 156 6.4 9.7 0.00 0.00 0.00 70 1012.0
20260507102613 11 111 1.6 6.4 0.00 0.00 0.00 70 1012.1
20260507101548 11 135 4.8 8.0 0.00 0.00 0.00 71 1012.1
20260507100544 10 135 3.2 3.2 0.00 0.00 0.00 74 1012.2
20260507095540 10 135 4.8 6.4 0.00 0.00 0.00 75 1012.1
20260507094537 10 135 4.8 6.4 0.00 0.00 0.00 76 1012.0
20260507093631 10 96 6.4 8.0 0.00 0.00 0.00 76 1012.0
20260507092626 10 90 3.2 4.8 0.00 0.00 0.00 78 1011.9
20260507091621 9 1.6 6.4 0.00 0.00 0.00 80 1011.9
20260507090616 9 293 3.2 6.4 0.00 0.00 0.00 80 1012.0
20260507085611 8 90 1.6 3.2 0.00 0.00 0.00 81 1011.9
20260507084606 8 3.2 6.4 0.00 0.00 0.00 82 1012.0
20260507083742 8 90 1.6 3.2 0.00 0.00 0.00 82 1012.0
20260507082559 8 90 3.2 4.8 0.00 0.00 0.00 83 1011.9
20260507081555 7 90 3.2 6.4 0.00 0.00 0.00 83 1011.9
20260507080550 7 90 3.2 4.8 0.00 0.00 0.00 84 1011.9
20260507075545 7 90 1.6 4.8 0.00 0.00 0.00 84 1011.8
20260507074600 7 90 1.6 4.8 0.00 0.00 0.00 84 1011.8
20260507073536 7 90 1.6 4.8 0.00 0.00 0.00 84 1011.8
20260507072612 7 90 1.6 3.2 0.00 0.00 0.00 90 1011.8
20260507071608 7 1.6 4.8 0.00 0.00 0.00 90 1011.8
20260507070625 7 90 1.6 4.8 0.00 0.00 0.00 90 1011.7
20260507065620 7 90 1.6 4.8 0.00 0.00 0.00 90 1011.7
20260507064637 6 90 0.0 3.2 0.00 0.00 0.00 90 1011.6
20260507063612 6 122 1.6 4.8 0.00 0.00 0.00 90 1011.6
20260507062607 6 90 0.0 4.8 0.00 0.00 0.00 90 1011.6
20260507061602 6 90 0.0 3.2 0.00 0.00 0.00 90 1011.5
20260507060558 6 90 3.2 4.8 0.00 0.00 0.00 90 1011.6
20260507055614 6 90 1.6 4.8 0.00 0.00 0.00 90 1011.5
20260507054550 6 90 0.0 3.2 0.00 0.00 0.00 90 1011.5
20260507053546 6 90 0.0 3.2 0.00 0.00 0.00 89 1011.4
20260507052600 6 0.0 0.0 0.00 0.00 0.00 89 1011.5
20260507051535 6 90 3.2 4.8 0.00 0.00 0.00 89 1011.5
20260507050531 6 90 3.2 6.4 0.00 0.00 0.00 88 1011.5
20260507045525 6 90 3.2 6.4 0.00 0.00 0.00 88 1011.5
20260507044701 6 90 3.2 4.8 0.00 0.00 0.00 88 1011.5
20260507043617 6 90 4.8 6.4 0.00 0.00 0.00 87 1011.4
20260507042633 6 90 3.2 4.8 0.00 0.00 0.00 87 1011.4
20260507041609 6 90 3.2 4.8 0.00 0.00 0.00 86 1011.4
20260507040624 6 90 1.6 6.4 0.00 0.00 0.00 86 1011.5
20260507035559 6 90 1.6 3.2 0.00 0.00 0.00 85 1011.4
20260507034554 6 90 1.6 3.2 0.00 0.00 0.00 84 1011.4
20260507033550 6 90 3.2 4.8 0.00 0.00 0.00 84 1011.4
20260507032546 6 90 3.2 6.4 0.00 0.00 0.00 84 1011.5
20260507031542 6 90 4.8 6.4 0.00 0.00 0.00 83 1011.4
20260507030539 6 90 3.2 6.4 0.00 0.00 0.00 83 1011.4
20260507025615 6 90 3.2 4.8 0.00 0.00 0.00 82 1011.5
20260507024531 6 90 3.2 3.2 0.00 0.00 0.00 82 1011.5
20260507023526 6 90 3.2 4.8 0.00 0.00 0.00 82 1011.5
20260507022521 6 90 3.2 3.2 0.00 0.00 0.00 81 1011.5
20260507021616 7 90 3.2 6.4 0.00 0.00 0.00 81 1011.5
20260507020612 7 90 1.6 4.8 0.00 0.00 0.00 81 1011.5
20260507015608 7 90 3.2 6.4 0.00 0.00 0.00 81 1011.7
20260507014625 7 0.0 0.0 0.00 0.00 0.00 81 1011.7
20260507013620 7 0.0 3.2 0.00 0.00 0.00 81 1011.7
20260507012555 7 1.6 3.2 0.00 0.00 0.00 80 1011.6
20260507011610 7 98 3.2 6.4 0.00 0.00 0.00 80 1011.6
20260507010545 7 135 4.8 6.4 0.00 0.00 0.00 80 1011.8
20260507005535 7 113 3.2 6.4 0.00 0.00 0.00 78 1011.7
20260507004525 7 97 3.2 6.4 0.00 0.00 0.00 72 1011.8
20260507003521 7 90 1.6 4.8 0.00 0.00 0.00 72 1011.8
20260507002615 7 90 3.2 4.8 0.00 0.00 0.00 71 1011.7
20260507001602 7 90 3.2 3.2 0.00 0.00 0.00 71 1011.8
20260507000712 7 90 3.2 4.8 0.00 0.00 0.00 70 1011.9
20260506235701 8 135 3.2 4.8 0.00 0.00 0.00 70 1011.9
20260506234630 8 124 3.2 6.4 0.00 0.00 0.00 70 1011.8
20260506233626 8 135 6.4 9.7 0.00 0.00 0.00 70 1011.7
20260506232616 8 153 8.0 12.9 0.00 0.00 0.00 70 1011.8
20260506231612 8 90 8.0 12.9 0.00 0.00 0.00 69 1011.8
20260506230603 8 135 12.9 14.5 0.00 0.00 0.00 68 1011.9
20260506225559 8 106 4.8 8.0 0.00 0.00 0.00 68 1011.8
20260506224650 8 116 4.8 6.4 0.00 0.00 0.00 67 1011.8
20260506223640 8 135 4.8 12.9 0.00 0.00 0.00 67 1011.8
20260506222635 8 90 1.6 3.2 0.00 0.00 0.00 66 1011.8
20260506221625 8 90 1.6 3.2 0.00 0.00 0.00 66 1011.8
20260506220616 8 90 3.2 4.8 0.00 0.00 0.00 65 1011.6
20260506215611 8 67 3.2 8.0 0.00 0.00 0.00 65 1011.6
20260506214602 8 90 3.2 6.4 0.00 0.00 0.00 63 1011.5
20260506213558 8 90 3.2 6.4 0.00 0.00 0.00 63 1011.5
20260506212648 9 90 6.4 6.4 0.00 0.00 0.00 61 1011.4
20260506211638 8 8.0 12.9 0.00 0.00 0.00 62 1011.4
20260506210633 8 90 3.2 3.2 0.00 0.00 0.00 61 1011.3
20260506205622 9 90 3.2 6.4 0.00 0.00 0.00 60 1011.1
20260506204612 10 90 6.4 11.3 0.00 0.00 0.00 60 1011.2
20260506203608 10 90 6.4 6.4 0.00 0.00 0.00 58 1011.3
20260506202559 10 135 4.8 6.4 0.00 0.00 0.00 58 1011.3
20260506201555 10 90 8.0 12.9 0.00 0.00 0.00 60 1011.2
20260506200644 10 135 6.4 8.0 0.00 0.00 0.00 60 1011.2
20260506195653 10 116 6.4 9.7 0.00 0.00 0.00 60 1011.0
20260506194623 10 80 3.2 6.4 0.00 0.00 0.00 59 1011.0
20260506193619 10 123 3.2 6.4 0.00 0.00 0.00 58 1010.9